EXS81H EGHH-LEIB

Flight info

Callsign EXS81H
Flight time 2h 9m
Altitude 39000
Route THRED Z171 LELNA DCT DOMOK UT260 UPALO UY110 REN UP87 TERPO UM616 TUPAR DCT CNA DCT SECHE DCT AGN DCT TOU DCT LOMRA DCT ROCAN DCT PUMAL DCT XEPLA DCT BCN Z174 CORDA
Aircraft B738/M-SDE2E3FGHIRWXY/LB1

Departure

Time 2026-05-06 15:35
Airport Bournemouth Airport (EGHH)

Arrival

Time 2026-05-06 17:44
Airport Ibiza Airport (LEIB)
Time Latitude Longitude Altitude Speed Heading
2026-05-06 15:14 50.77924 -1.83394 40 ft 0 kts 87°
2026-05-06 15:22 50.77924 -1.83392 40 ft 1 kts 90°
2026-05-06 15:22 50.77917 -1.83391 40 ft 3 kts 155°
2026-05-06 15:22 50.77898 -1.83390 39 ft 3 kts 176°
2026-05-06 15:23 50.77893 -1.83373 40 ft 3 kts 107°
2026-05-06 15:23 50.77893 -1.83355 41 ft 0 kts 87°
2026-05-06 15:23 50.77893 -1.83365 40 ft 3 kts 99°
2026-05-06 15:23 50.77894 -1.83380 40 ft 3 kts 175°
2026-05-06 15:24 50.77914 -1.83381 39 ft 3 kts 166°
2026-05-06 15:24 50.77925 -1.83386 38 ft 2 kts 102°
2026-05-06 15:24 50.77926 -1.83400 37 ft 3 kts 85°
2026-05-06 15:24 50.77923 -1.83431 37 ft 3 kts 75°
2026-05-06 15:25 50.77917 -1.83462 40 ft 3 kts 73°
2026-05-06 15:25 50.77913 -1.83485 40 ft 3 kts 122°
2026-05-06 15:25 50.77900 -1.83484 38 ft 2 kts 176°
2026-05-06 15:25 50.77908 -1.83485 37 ft 3 kts 174°
2026-05-06 15:26 50.77928 -1.83489 36 ft 3 kts 174°
2026-05-06 15:26 50.77937 -1.83491 38 ft 0 kts 176°
2026-05-06 15:28 50.77930 -1.83490 37 ft 4 kts 176°
2026-05-06 15:28 50.77882 -1.83485 40 ft 10 kts 176°
2026-05-06 15:28 50.77803 -1.83471 42 ft 13 kts 172°
2026-05-06 15:28 50.77706 -1.83461 42 ft 15 kts 182°
2026-05-06 15:29 50.77607 -1.83494 42 ft 15 kts 207°
2026-05-06 15:29 50.77573 -1.83646 42 ft 15 kts 269°
2026-05-06 15:29 50.77580 -1.83812 43 ft 15 kts 277°
2026-05-06 15:29 50.77604 -1.83977 43 ft 16 kts 285°
2026-05-06 15:30 50.77629 -1.84146 43 ft 16 kts 282°
2026-05-06 15:30 50.77662 -1.84317 43 ft 16 kts 290°
2026-05-06 15:30 50.77696 -1.84485 42 ft 16 kts 284°
2026-05-06 15:30 50.77715 -1.84662 43 ft 16 kts 278°
2026-05-06 15:31 50.77748 -1.84831 43 ft 16 kts 296°
2026-05-06 15:31 50.77800 -1.84989 45 ft 16 kts 300°
2026-05-06 15:31 50.77838 -1.85148 47 ft 16 kts 262°
2026-05-06 15:32 50.77801 -1.85500 46 ft 17 kts 257°
2026-05-06 15:32 50.77750 -1.85680 44 ft 19 kts 216°
2026-05-06 15:32 50.77716 -1.85740 44 ft 1 kts 302°
2026-05-06 15:32 50.77729 -1.85746 44 ft 3 kts 339°
2026-05-06 15:33 50.77752 -1.85740 44 ft 4 kts 49°
2026-05-06 15:33 50.77770 -1.85676 44 ft 5 kts 74°
2026-05-06 15:33 50.77770 -1.85675 44 ft 0 kts 74°
2026-05-06 15:34 50.77770 -1.85674 44 ft 0 kts 74°
2026-05-06 15:34 50.77776 -1.85643 44 ft 9 kts 74°
2026-05-06 15:34 50.77856 -1.85179 47 ft 84 kts 76°
2026-05-06 15:34 50.78067 -1.83902 44 ft 153 kts 75°
2026-05-06 15:35 50.78366 -1.82061 495 ft 179 kts 73°
2026-05-06 15:35 50.78590 -1.80080 1385 ft 189 kts 92°
2026-05-06 15:35 50.77970 -1.78166 2072 ft 214 kts 136°
2026-05-06 15:35 50.76538 -1.77236 2333 ft 238 kts 178°
2026-05-06 15:36 50.74840 -1.77174 2750 ft 250 kts 163°
2026-05-06 15:36 50.73435 -1.75690 3425 ft 246 kts 123°
2026-05-06 15:36 50.72915 -1.73172 3992 ft 249 kts 86°
2026-05-06 15:36 50.73438 -1.70559 4467 ft 256 kts 57°
2026-05-06 15:37 50.74465 -1.68237 5313 ft 258 kts 44°
2026-05-06 15:37 50.75793 -1.66350 6126 ft 264 kts 38°
2026-05-06 15:37 50.77202 -1.64377 6904 ft 271 kts 40°
2026-05-06 15:37 50.78540 -1.62348 7608 ft 271 kts 42°
2026-05-06 15:38 50.79880 -1.60218 7962 ft 274 kts 43°
2026-05-06 15:38 50.81212 -1.58054 7973 ft 276 kts 45°
2026-05-06 15:38 50.82215 -1.55460 7974 ft 281 kts 73°
2026-05-06 15:38 50.82293 -1.52379 7985 ft 286 kts 101°
2026-05-06 15:39 50.81446 -1.49552 7985 ft 288 kts 129°
2026-05-06 15:39 50.79856 -1.47658 7976 ft 289 kts 159°
2026-05-06 15:39 50.77886 -1.47209 7985 ft 286 kts 189°
2026-05-06 15:39 50.76019 -1.48077 8006 ft 284 kts 205°
2026-05-06 15:40 50.74179 -1.49353 7979 ft 286 kts 206°
2026-05-06 15:40 50.72399 -1.50641 7991 ft 286 kts 207°
2026-05-06 15:40 50.70581 -1.51955 7997 ft 287 kts 207°
2026-05-06 15:40 50.68750 -1.53265 7989 ft 288 kts 206°
2026-05-06 15:41 50.66917 -1.54562 7985 ft 288 kts 206°
2026-05-06 15:41 50.65091 -1.55846 7995 ft 287 kts 206°
2026-05-06 15:41 50.63265 -1.57124 7976 ft 287 kts 205°
2026-05-06 15:41 50.61431 -1.58402 8151 ft 291 kts 205°
2026-05-06 15:42 50.59582 -1.59689 8536 ft 290 kts 205°
2026-05-06 15:42 50.57735 -1.60972 9257 ft 294 kts 205°
2026-05-06 15:42 50.55885 -1.62256 10151 ft 294 kts 205°
2026-05-06 15:42 50.53976 -1.63580 10640 ft 311 kts 205°
2026-05-06 15:43 50.51911 -1.65011 10804 ft 336 kts 205°
2026-05-06 15:43 50.49727 -1.66538 11320 ft 347 kts 206°
2026-05-06 15:43 50.47569 -1.68276 12118 ft 349 kts 210°
2026-05-06 15:43 50.45435 -1.70126 12967 ft 351 kts 210°
2026-05-06 15:44 50.43295 -1.72016 13744 ft 354 kts 211°
2026-05-06 15:44 50.41137 -1.73920 14425 ft 358 kts 210°
2026-05-06 15:44 50.38950 -1.75836 15124 ft 361 kts 210°
2026-05-06 15:44 50.36749 -1.77752 15835 ft 364 kts 210°
2026-05-06 15:45 50.34529 -1.79675 16550 ft 366 kts 210°
2026-05-06 15:45 50.32314 -1.81586 17254 ft 369 kts 210°
2026-05-06 15:45 50.30028 -1.83553 17952 ft 372 kts 210°
2026-05-06 15:45 50.27782 -1.85483 18584 ft 375 kts 210°
2026-05-06 15:46 50.25487 -1.87452 19177 ft 377 kts 210°
2026-05-06 15:46 50.23166 -1.89440 19741 ft 381 kts 210°
2026-05-06 15:46 50.20825 -1.91445 20307 ft 384 kts 210°
2026-05-06 15:46 50.18478 -1.93451 20870 ft 387 kts 210°
2026-05-06 15:47 50.16123 -1.95463 21424 ft 391 kts 210°
2026-05-06 15:47 50.13719 -1.97514 21965 ft 394 kts 210°
2026-05-06 15:47 50.11308 -1.99569 22498 ft 397 kts 210°
2026-05-06 15:47 50.08935 -2.01589 23018 ft 400 kts 210°
2026-05-06 15:48 50.06471 -2.03685 23538 ft 403 kts 210°
2026-05-06 15:48 50.03995 -2.05788 23975 ft 406 kts 210°
2026-05-06 15:48 50.01536 -2.07869 24395 ft 409 kts 209°
2026-05-06 15:48 49.98886 -2.09561 24741 ft 416 kts 195°
2026-05-06 15:49 49.96003 -2.10152 25267 ft 417 kts 182°
2026-05-06 15:49 49.93113 -2.09733 25792 ft 420 kts 168°
2026-05-06 15:49 49.90277 -2.08578 26215 ft 422 kts 165°
2026-05-06 15:49 49.87424 -2.07288 26534 ft 427 kts 165°
2026-05-06 15:50 49.84560 -2.05960 26858 ft 432 kts 164°
2026-05-06 15:50 49.81678 -2.04630 27273 ft 433 kts 165°
2026-05-06 15:50 49.78778 -2.03311 27711 ft 435 kts 165°
2026-05-06 15:50 49.75892 -2.02020 28081 ft 437 kts 165°
2026-05-06 15:51 49.72951 -2.00722 28417 ft 440 kts 165°
2026-05-06 15:51 49.69988 -1.99425 28779 ft 442 kts 165°
2026-05-06 15:51 49.68017 -1.98566 29047 ft 443 kts 165°
2026-05-06 15:51 49.64068 -1.96852 29512 ft 446 kts 165°
2026-05-06 15:52 49.61072 -1.95555 29826 ft 448 kts 165°
2026-05-06 15:52 49.59068 -1.94688 30026 ft 450 kts 165°
2026-05-06 15:52 49.56041 -1.93379 30302 ft 452 kts 165°
2026-05-06 15:52 49.52994 -1.92063 30576 ft 454 kts 165°
2026-05-06 15:53 49.49947 -1.90749 30830 ft 456 kts 165°
2026-05-06 15:53 49.46882 -1.89428 31104 ft 457 kts 165°
2026-05-06 15:53 49.43819 -1.88110 31465 ft 456 kts 165°
2026-05-06 15:53 49.40762 -1.86795 31877 ft 454 kts 165°
2026-05-06 15:54 49.37727 -1.85492 32228 ft 454 kts 165°
2026-05-06 15:54 49.34677 -1.84184 32488 ft 455 kts 165°
2026-05-06 15:54 49.31618 -1.82874 32766 ft 456 kts 165°
2026-05-06 15:54 49.28562 -1.81567 33120 ft 455 kts 165°
2026-05-06 15:55 49.25550 -1.80281 33493 ft 454 kts 165°
2026-05-06 15:55 49.22505 -1.78982 33776 ft 454 kts 165°
2026-05-06 15:55 49.19458 -1.77683 34014 ft 455 kts 165°
2026-05-06 15:55 49.16402 -1.76384 34275 ft 455 kts 165°
2026-05-06 15:56 49.13353 -1.75088 34498 ft 456 kts 165°
2026-05-06 15:56 49.10290 -1.73788 34714 ft 457 kts 165°
2026-05-06 15:56 49.07229 -1.72490 34980 ft 456 kts 165°
2026-05-06 15:56 49.04181 -1.71200 35252 ft 454 kts 165°
2026-05-06 15:57 49.01134 -1.69911 35459 ft 455 kts 165°
2026-05-06 15:57 48.98084 -1.68624 35636 ft 457 kts 165°
2026-05-06 15:57 48.95027 -1.67334 35875 ft 456 kts 165°
2026-05-06 15:57 48.91968 -1.66046 36168 ft 454 kts 165°
2026-05-06 15:58 48.88922 -1.64765 36430 ft 453 kts 165°
2026-05-06 15:58 48.85881 -1.63487 36614 ft 454 kts 165°
2026-05-06 15:58 48.82866 -1.62222 36773 ft 455 kts 165°
2026-05-06 15:58 48.79807 -1.60940 36996 ft 455 kts 166°
2026-05-06 15:59 48.76767 -1.59668 37267 ft 453 kts 166°
2026-05-06 15:59 48.73724 -1.58396 37507 ft 452 kts 166°
2026-05-06 15:59 48.70683 -1.57126 37668 ft 453 kts 166°
2026-05-06 15:59 48.67630 -1.55853 37812 ft 454 kts 166°
2026-05-06 16:00 48.64626 -1.54602 38003 ft 454 kts 166°
2026-05-06 16:00 48.61574 -1.53333 38239 ft 453 kts 166°
2026-05-06 16:00 48.58526 -1.52067 38404 ft 453 kts 166°
2026-05-06 16:00 48.55476 -1.50801 38535 ft 454 kts 166°
2026-05-06 16:01 48.52473 -1.49557 38688 ft 454 kts 166°
2026-05-06 16:01 48.49416 -1.48292 38867 ft 453 kts 166°
2026-05-06 16:01 48.46380 -1.47037 38983 ft 452 kts 166°
2026-05-06 16:01 48.43337 -1.45781 38928 ft 456 kts 166°
2026-05-06 16:02 48.37215 -1.43258 38951 ft 455 kts 166°
2026-05-06 16:02 48.31126 -1.40755 38957 ft 454 kts 166°
2026-05-06 16:03 48.25065 -1.38270 38968 ft 453 kts 166°
2026-05-06 16:03 48.18989 -1.35785 38970 ft 452 kts 166°
2026-05-06 16:04 48.12914 -1.33306 38954 ft 452 kts 166°
2026-05-06 16:04 48.06858 -1.30841 38968 ft 451 kts 166°
2026-05-06 16:05 48.00800 -1.28382 38960 ft 451 kts 166°
2026-05-06 16:05 47.94780 -1.25944 38986 ft 451 kts 166°
2026-05-06 16:06 47.88702 -1.23489 38935 ft 454 kts 166°
2026-05-06 16:06 47.82604 -1.21031 38954 ft 453 kts 166°
2026-05-06 16:07 47.76507 -1.18579 38960 ft 453 kts 166°
2026-05-06 16:07 47.70442 -1.16146 38978 ft 453 kts 166°
2026-05-06 16:08 47.64335 -1.13703 38970 ft 455 kts 166°
2026-05-06 16:08 47.58208 -1.11257 38952 ft 456 kts 166°
2026-05-06 16:09 47.52088 -1.08820 38956 ft 455 kts 166°
2026-05-06 16:09 47.45984 -1.06395 38968 ft 454 kts 166°
2026-05-06 16:10 47.39922 -1.03993 38950 ft 453 kts 166°
2026-05-06 16:10 47.33833 -1.01585 38970 ft 452 kts 166°
2026-05-06 16:11 47.27848 -0.99224 38962 ft 452 kts 166°
2026-05-06 16:11 47.21757 -0.96828 38966 ft 451 kts 166°
2026-05-06 16:12 47.15691 -0.94447 38967 ft 451 kts 166°
2026-05-06 16:12 47.09620 -0.92069 38953 ft 451 kts 166°
2026-05-06 16:13 47.03596 -0.89715 38972 ft 451 kts 167°
2026-05-06 16:13 46.97532 -0.87352 38964 ft 451 kts 167°
2026-05-06 16:14 46.91456 -0.84989 38960 ft 452 kts 167°
2026-05-06 16:14 46.85364 -0.82626 38964 ft 452 kts 167°
2026-05-06 16:15 46.79303 -0.80280 38959 ft 453 kts 167°
2026-05-06 16:15 46.73203 -0.77924 38962 ft 454 kts 167°
2026-05-06 16:16 46.67086 -0.75568 38954 ft 455 kts 167°
2026-05-06 16:16 46.60953 -0.73210 38946 ft 455 kts 167°
2026-05-06 16:17 46.54826 -0.70860 38951 ft 455 kts 167°
2026-05-06 16:17 46.48705 -0.68517 38953 ft 455 kts 167°
2026-05-06 16:18 46.42612 -0.66191 38966 ft 455 kts 167°
2026-05-06 16:18 46.36525 -0.63520 38944 ft 456 kts 163°
2026-05-06 16:19 46.30498 -0.60644 38944 ft 456 kts 163°
2026-05-06 16:19 46.24460 -0.57803 38944 ft 456 kts 164°
2026-05-06 16:20 46.18453 -0.55030 38960 ft 455 kts 164°
2026-05-06 16:20 46.12408 -0.52261 38946 ft 455 kts 164°
2026-05-06 16:21 46.06357 -0.49497 38940 ft 455 kts 164°
2026-05-06 16:21 46.00355 -0.46759 38951 ft 455 kts 164°
2026-05-06 16:22 45.94325 -0.44014 38930 ft 455 kts 164°
2026-05-06 16:22 45.88283 -0.41270 38925 ft 456 kts 164°
2026-05-06 16:23 45.82269 -0.38544 38937 ft 455 kts 164°
2026-05-06 16:23 45.76232 -0.35814 38941 ft 454 kts 164°
2026-05-06 16:24 45.70198 -0.33091 38930 ft 455 kts 164°
2026-05-06 16:24 45.64205 -0.30151 38912 ft 457 kts 157°
2026-05-06 16:25 45.58488 -0.26206 38932 ft 457 kts 155°
2026-05-06 16:25 45.52807 -0.22151 38943 ft 456 kts 155°
2026-05-06 16:26 45.47145 -0.18183 38950 ft 457 kts 156°
2026-05-06 16:26 45.41416 -0.14231 38945 ft 458 kts 156°
2026-05-06 16:27 45.35662 -0.10286 38930 ft 458 kts 156°
2026-05-06 16:27 45.29913 -0.06353 38932 ft 458 kts 156°
2026-05-06 16:28 45.24203 -0.02453 38938 ft 458 kts 156°
2026-05-06 16:28 45.18627 0.01347 38930 ft 458 kts 156°
2026-05-06 16:29 45.12877 0.05258 38933 ft 457 kts 156°
2026-05-06 16:29 45.07129 0.09158 38950 ft 457 kts 156°
2026-05-06 16:30 45.04264 0.11087 39133 ft 450 kts 158°
2026-05-06 16:30 45.02393 0.12272 39451 ft 443 kts 159°
2026-05-06 16:30 44.95826 0.16466 39374 ft 453 kts 156°
2026-05-06 16:31 44.93009 0.18470 39129 ft 462 kts 155°
2026-05-06 16:31 44.90121 0.20522 39003 ft 464 kts 156°
2026-05-06 16:31 44.84361 0.24515 38941 ft 457 kts 156°
2026-05-06 16:32 44.78640 0.28375 38933 ft 455 kts 157°
2026-05-06 16:32 44.72941 0.32182 38938 ft 458 kts 157°
2026-05-06 16:33 44.67173 0.36031 38946 ft 460 kts 157°
2026-05-06 16:34 44.58499 0.41810 38951 ft 462 kts 157°
2026-05-06 16:34 44.52690 0.45672 38945 ft 462 kts 157°
2026-05-06 16:35 44.46873 0.49531 38930 ft 462 kts 157°
2026-05-06 16:35 44.41048 0.53377 38922 ft 461 kts 158°
2026-05-06 16:36 44.35258 0.57166 38941 ft 458 kts 158°
2026-05-06 16:36 44.29525 0.60907 38972 ft 456 kts 158°
2026-05-06 16:37 44.23785 0.64649 38961 ft 454 kts 158°
2026-05-06 16:37 44.18059 0.68377 38961 ft 453 kts 158°
2026-05-06 16:38 44.12349 0.72086 38971 ft 451 kts 158°
2026-05-06 16:38 44.06683 0.75758 38960 ft 451 kts 158°
2026-05-06 16:39 44.01942 0.78825 38939 ft 451 kts 158°
2026-05-06 16:39 43.96247 0.82503 38941 ft 452 kts 158°
2026-05-06 16:40 43.90630 0.86504 38891 ft 458 kts 147°
2026-05-06 16:40 43.88181 0.89351 38992 ft 460 kts 137°
2026-05-06 16:40 43.86081 0.92724 38874 ft 467 kts 126°
2026-05-06 16:40 43.84306 0.96489 39038 ft 464 kts 125°
2026-05-06 16:41 43.82580 1.00169 38950 ft 467 kts 130°
2026-05-06 16:41 43.80460 1.03483 38969 ft 462 kts 141°
2026-05-06 16:41 43.77955 1.06237 38928 ft 460 kts 150°
2026-05-06 16:42 43.72340 1.10304 38976 ft 455 kts 158°
2026-05-06 16:42 43.66655 1.14095 38967 ft 457 kts 158°
2026-05-06 16:43 43.60925 1.17966 38954 ft 458 kts 158°
2026-05-06 16:43 43.55204 1.21858 38944 ft 458 kts 158°
2026-05-06 16:44 43.49489 1.25746 38943 ft 457 kts 158°
2026-05-06 16:44 43.43819 1.29596 38929 ft 456 kts 158°
2026-05-06 16:45 43.38126 1.33452 38941 ft 454 kts 158°
2026-05-06 16:45 43.32442 1.37292 38938 ft 453 kts 158°
2026-05-06 16:46 43.26785 1.41105 38941 ft 452 kts 158°
2026-05-06 16:46 43.21185 1.44874 38945 ft 451 kts 158°
2026-05-06 16:47 43.15570 1.48644 38956 ft 449 kts 158°
2026-05-06 16:47 43.09957 1.52404 38964 ft 448 kts 158°
2026-05-06 16:48 43.04353 1.56152 38965 ft 447 kts 159°
2026-05-06 16:48 42.98796 1.59860 38948 ft 447 kts 159°
2026-05-06 16:49 42.93200 1.63585 38963 ft 448 kts 159°
2026-05-06 16:49 42.87593 1.67312 38978 ft 448 kts 160°
2026-05-06 16:50 42.81967 1.71042 38973 ft 451 kts 159°
2026-05-06 16:50 42.76304 1.74790 38963 ft 453 kts 159°
2026-05-06 16:51 42.70660 1.78519 38975 ft 455 kts 159°
2026-05-06 16:51 42.64943 1.82281 38960 ft 457 kts 159°
2026-05-06 16:52 42.59208 1.86061 38936 ft 457 kts 159°
2026-05-06 16:52 42.53528 1.89793 38949 ft 456 kts 159°
2026-05-06 16:53 42.47809 1.93541 38936 ft 454 kts 159°
2026-05-06 16:53 42.42123 1.97261 38931 ft 453 kts 160°
2026-05-06 16:54 42.36450 2.00469 38902 ft 442 kts 171°
2026-05-06 16:54 42.30493 2.01547 38933 ft 431 kts 182°
2026-05-06 16:55 42.24505 2.02036 38908 ft 432 kts 182°
2026-05-06 16:55 42.18507 2.02559 38913 ft 432 kts 181°
2026-05-06 16:56 42.12507 2.03122 38897 ft 432 kts 181°
2026-05-06 16:56 42.06552 2.03694 38877 ft 432 kts 181°
2026-05-06 16:57 42.00568 2.04268 38889 ft 431 kts 181°
2026-05-06 16:57 41.94589 2.04840 38878 ft 432 kts 182°
2026-05-06 16:58 41.88596 2.05410 38892 ft 433 kts 181°
2026-05-06 16:58 41.82580 2.05982 38904 ft 433 kts 181°
2026-05-06 16:59 41.76546 2.06556 38916 ft 434 kts 181°
2026-05-06 16:59 41.70517 2.07128 38925 ft 433 kts 182°
2026-05-06 17:00 41.64529 2.07689 38917 ft 434 kts 182°
2026-05-06 17:00 41.58497 2.08244 38912 ft 434 kts 182°
2026-05-06 17:01 41.52475 2.08799 38896 ft 434 kts 182°
2026-05-06 17:01 41.46465 2.09353 38939 ft 432 kts 182°
2026-05-06 17:02 41.40462 2.09904 38935 ft 432 kts 182°
2026-05-06 17:02 41.34460 2.10455 38938 ft 431 kts 182°
2026-05-06 17:03 41.28480 2.11085 38930 ft 432 kts 180°
2026-05-06 17:03 41.22551 2.12076 38940 ft 431 kts 179°
2026-05-06 17:04 41.16595 2.13136 38938 ft 431 kts 179°
2026-05-06 17:04 41.10658 2.14160 38908 ft 430 kts 179°
2026-05-06 17:05 41.04725 2.15158 38921 ft 428 kts 179°
2026-05-06 17:05 40.98816 2.16143 38911 ft 428 kts 179°
2026-05-06 17:06 40.92911 2.17125 38919 ft 428 kts 179°
2026-05-06 17:06 40.87036 2.18101 38901 ft 428 kts 179°
2026-05-06 17:07 40.81117 2.19084 38920 ft 427 kts 179°
2026-05-06 17:07 40.75207 2.20063 38918 ft 428 kts 179°
2026-05-06 17:08 40.69326 2.21035 38920 ft 428 kts 179°
2026-05-06 17:08 40.63408 2.22013 38925 ft 429 kts 179°
2026-05-06 17:09 40.57483 2.22989 38919 ft 429 kts 179°
2026-05-06 17:09 40.51542 2.23967 38926 ft 430 kts 179°
2026-05-06 17:10 40.45608 2.24942 38925 ft 430 kts 179°
2026-05-06 17:10 40.39672 2.25989 38912 ft 432 kts 177°
2026-05-06 17:11 40.33777 2.27497 38680 ft 438 kts 175°
2026-05-06 17:11 40.30771 2.28315 38012 ft 442 kts 175°
2026-05-06 17:11 40.27790 2.29128 37717 ft 433 kts 175°
2026-05-06 17:11 40.24858 2.29915 37210 ft 431 kts 176°
2026-05-06 17:12 40.21943 2.30684 36909 ft 423 kts 176°
2026-05-06 17:12 40.19061 2.31435 36448 ft 420 kts 177°
2026-05-06 17:12 40.16218 2.32169 36183 ft 413 kts 177°
2026-05-06 17:12 40.13406 2.32891 35737 ft 411 kts 177°
2026-05-06 17:13 40.10614 2.33607 35387 ft 407 kts 178°
2026-05-06 17:13 40.07835 2.34318 35002 ft 404 kts 178°
2026-05-06 17:13 40.05086 2.35022 34636 ft 400 kts 178°
2026-05-06 17:13 40.02393 2.35712 34276 ft 397 kts 178°
2026-05-06 17:14 39.99660 2.36411 33879 ft 395 kts 179°
2026-05-06 17:14 39.96974 2.37098 33469 ft 392 kts 178°
2026-05-06 17:14 39.94344 2.37770 33088 ft 388 kts 178°
2026-05-06 17:14 39.91703 2.38445 32747 ft 384 kts 178°
2026-05-06 17:15 39.89093 2.39111 32372 ft 381 kts 178°
2026-05-06 17:15 39.86501 2.39772 32033 ft 377 kts 178°
2026-05-06 17:15 39.83929 2.40427 31701 ft 374 kts 178°
2026-05-06 17:15 39.81383 2.41075 31333 ft 372 kts 178°
2026-05-06 17:16 39.78849 2.41719 31015 ft 368 kts 178°
2026-05-06 17:16 39.76343 2.42356 30647 ft 366 kts 178°
2026-05-06 17:16 39.73866 2.42602 30276 ft 349 kts 194°
2026-05-06 17:16 39.71512 2.42215 30174 ft 338 kts 195°
2026-05-06 17:17 39.69188 2.41815 29859 ft 334 kts 195°
2026-05-06 17:17 39.66898 2.41435 29579 ft 330 kts 195°
2026-05-06 17:17 39.64629 2.41072 29257 ft 326 kts 195°
2026-05-06 17:17 39.62380 2.40724 28897 ft 325 kts 194°
2026-05-06 17:18 39.60147 2.40382 28620 ft 321 kts 194°
2026-05-06 17:18 39.57945 2.40042 28253 ft 323 kts 196°
2026-05-06 17:18 39.55820 2.39171 27897 ft 319 kts 216°
2026-05-06 17:18 39.54013 2.37469 27382 ft 327 kts 229°
2026-05-06 17:19 39.52643 2.35175 27154 ft 317 kts 237°
2026-05-06 17:19 39.51411 2.32787 26735 ft 315 kts 238°
2026-05-06 17:19 39.50222 2.30408 26314 ft 315 kts 238°
2026-05-06 17:19 39.49046 2.28047 26039 ft 311 kts 238°
2026-05-06 17:20 39.47889 2.25733 25690 ft 309 kts 238°
2026-05-06 17:20 39.46720 2.23406 25362 ft 307 kts 238°
2026-05-06 17:20 39.45542 2.21072 25024 ft 305 kts 238°
2026-05-06 17:20 39.44397 2.18810 24704 ft 303 kts 238°
2026-05-06 17:21 39.43244 2.16539 24382 ft 302 kts 238°
2026-05-06 17:21 39.42091 2.14271 24063 ft 300 kts 238°
2026-05-06 17:21 39.40944 2.12018 23740 ft 299 kts 237°
2026-05-06 17:21 39.39800 2.09774 23411 ft 298 kts 237°
2026-05-06 17:22 39.38660 2.07539 23030 ft 297 kts 237°
2026-05-06 17:22 39.37526 2.05318 22696 ft 295 kts 237°
2026-05-06 17:22 39.36402 2.03118 22384 ft 292 kts 237°
2026-05-06 17:22 39.35286 2.00936 22067 ft 290 kts 238°
2026-05-06 17:23 39.34178 1.98771 21759 ft 288 kts 238°
2026-05-06 17:23 39.33078 1.96622 21425 ft 286 kts 238°
2026-05-06 17:23 39.32003 1.94523 21169 ft 282 kts 238°
2026-05-06 17:23 39.30923 1.92417 20845 ft 281 kts 238°
2026-05-06 17:24 39.29844 1.90314 20557 ft 279 kts 238°
2026-05-06 17:24 39.28770 1.88221 20253 ft 281 kts 238°
2026-05-06 17:24 39.27684 1.86106 19952 ft 283 kts 238°
2026-05-06 17:24 39.26587 1.83970 19659 ft 291 kts 238°
2026-05-06 17:25 39.25454 1.81764 19340 ft 298 kts 238°
2026-05-06 17:25 39.24691 1.80282 19108 ft 299 kts 238°
2026-05-06 17:25 39.23539 1.78045 18785 ft 298 kts 238°
2026-05-06 17:25 39.22390 1.75817 18468 ft 297 kts 238°
2026-05-06 17:26 39.21246 1.73598 18128 ft 297 kts 238°
2026-05-06 17:26 39.20089 1.71395 17700 ft 298 kts 236°
2026-05-06 17:26 39.18840 1.69232 17114 ft 299 kts 234°
2026-05-06 17:26 39.17585 1.67139 16791 ft 292 kts 234°
2026-05-06 17:27 39.16349 1.65082 16494 ft 285 kts 234°
2026-05-06 17:27 39.15141 1.63066 16171 ft 283 kts 234°
2026-05-06 17:27 39.13956 1.61080 15882 ft 282 kts 234°
2026-05-06 17:27 39.12768 1.59083 15580 ft 281 kts 234°
2026-05-06 17:28 39.11582 1.57088 15296 ft 279 kts 234°
2026-05-06 17:28 39.10404 1.55105 15009 ft 278 kts 234°
2026-05-06 17:28 39.09226 1.53121 14728 ft 277 kts 234°
2026-05-06 17:28 39.08055 1.51148 14430 ft 277 kts 234°
2026-05-06 17:29 39.06897 1.49199 14138 ft 277 kts 234°
2026-05-06 17:29 39.05727 1.47234 13855 ft 277 kts 234°
2026-05-06 17:29 39.04558 1.45272 13546 ft 276 kts 234°
2026-05-06 17:29 39.03401 1.43293 13224 ft 276 kts 234°
2026-05-06 17:30 39.02251 1.41305 12904 ft 276 kts 234°
2026-05-06 17:30 39.01109 1.39328 12623 ft 274 kts 235°
2026-05-06 17:30 38.99973 1.37364 12326 ft 273 kts 235°
2026-05-06 17:30 38.98839 1.35404 12047 ft 272 kts 235°
2026-05-06 17:31 38.97710 1.33457 11765 ft 273 kts 235°
2026-05-06 17:31 38.96557 1.31467 11285 ft 283 kts 235°
2026-05-06 17:31 38.95362 1.29406 10779 ft 290 kts 235°
2026-05-06 17:31 38.94148 1.27317 10310 ft 294 kts 235°
2026-05-06 17:32 38.92913 1.25192 9829 ft 299 kts 235°
2026-05-06 17:32 38.91675 1.23062 9318 ft 303 kts 235°
2026-05-06 17:32 38.90404 1.20880 8802 ft 307 kts 234°
2026-05-06 17:32 38.89118 1.18675 8279 ft 310 kts 234°
2026-05-06 17:33 38.87921 1.16363 7747 ft 312 kts 242°
2026-05-06 17:33 38.86908 1.13891 7283 ft 313 kts 244°
2026-05-06 17:33 38.85921 1.11389 6795 ft 314 kts 243°
2026-05-06 17:33 38.84912 1.08886 6300 ft 316 kts 242°
2026-05-06 17:34 38.83881 1.06390 5800 ft 317 kts 242°
2026-05-06 17:34 38.82839 1.03892 5289 ft 315 kts 241°
2026-05-06 17:34 38.81816 1.01449 4786 ft 307 kts 241°
2026-05-06 17:34 38.80841 0.99124 4284 ft 302 kts 241°
2026-05-06 17:35 38.79864 0.96795 4017 ft 288 kts 240°
2026-05-06 17:35 38.78834 0.94752 3954 ft 268 kts 226°
2026-05-06 17:35 38.77541 0.93142 3836 ft 252 kts 220°
2026-05-06 17:36 38.74751 0.90920 3273 ft 232 kts 177°
2026-05-06 17:36 38.73265 0.91482 3106 ft 220 kts 146°
2026-05-06 17:36 38.72153 0.92817 3038 ft 221 kts 122°
2026-05-06 17:36 38.71562 0.94633 3025 ft 229 kts 99°
2026-05-06 17:37 38.71587 0.96646 2993 ft 220 kts 82°
2026-05-06 17:37 38.71796 0.98504 2960 ft 200 kts 82°
2026-05-06 17:37 38.72093 1.00190 2950 ft 192 kts 66°
2026-05-06 17:37 38.72720 1.01711 2995 ft 199 kts 63°
2026-05-06 17:38 38.73358 1.03308 3002 ft 202 kts 64°
2026-05-06 17:38 38.74002 1.04915 2972 ft 202 kts 63°
2026-05-06 17:38 38.74646 1.06501 2988 ft 199 kts 63°
2026-05-06 17:38 38.75287 1.08072 2965 ft 199 kts 63°
2026-05-06 17:39 38.75929 1.09643 2954 ft 203 kts 64°
2026-05-06 17:39 38.76582 1.11238 2964 ft 203 kts 63°
2026-05-06 17:39 38.77237 1.12837 2973 ft 200 kts 63°
2026-05-06 17:39 38.77884 1.14417 2981 ft 200 kts 63°
2026-05-06 17:40 38.78542 1.16025 2980 ft 206 kts 64°
2026-05-06 17:40 38.79206 1.17644 2983 ft 203 kts 63°
2026-05-06 17:40 38.79846 1.19202 2873 ft 192 kts 63°
2026-05-06 17:40 38.80437 1.20643 2657 ft 177 kts 64°
2026-05-06 17:41 38.80981 1.21968 2449 ft 161 kts 64°
2026-05-06 17:41 38.81481 1.23189 2265 ft 147 kts 63°
2026-05-06 17:41 38.81947 1.24324 2055 ft 140 kts 63°
2026-05-06 17:41 38.82401 1.25430 1862 ft 142 kts 64°
2026-05-06 17:42 38.82857 1.26541 1728 ft 138 kts 63°
2026-05-06 17:42 38.83311 1.27646 1485 ft 141 kts 62°
2026-05-06 17:42 38.83768 1.28757 1304 ft 140 kts 64°
2026-05-06 17:42 38.84221 1.29860 1126 ft 142 kts 64°
2026-05-06 17:43 38.84685 1.30988 923 ft 142 kts 63°
2026-05-06 17:43 38.85143 1.32100 731 ft 140 kts 65°
2026-05-06 17:43 38.85590 1.33189 564 ft 139 kts 63°
2026-05-06 17:43 38.86059 1.34297 378 ft 142 kts 63°
2026-05-06 17:44 38.86503 1.35410 149 ft 132 kts 64°
2026-05-06 17:44 38.86904 1.36392 27 ft 116 kts 62°
2026-05-06 17:44 38.87199 1.37103 28 ft 62 kts 63°
2026-05-06 17:44 38.87339 1.37393 28 ft 28 kts 42°
2026-05-06 17:45 38.87459 1.37499 28 ft 0 kts 32°
2026-05-06 17:45 38.87466 1.37504 28 ft 3 kts 32°
2026-05-06 17:45 38.87497 1.37529 28 ft 7 kts 32°
2026-05-06 17:45 38.87551 1.37566 28 ft 10 kts 17°
2026-05-06 17:46 38.87617 1.37535 28 ft 12 kts 333°
2026-05-06 17:46 38.87699 1.37477 28 ft 13 kts 326°
2026-05-06 17:46 38.87688 1.37395 28 ft 12 kts 236°
2026-05-06 17:46 38.87644 1.37288 28 ft 14 kts 242°
2026-05-06 17:47 38.87601 1.37184 28 ft 14 kts 242°
2026-05-06 17:47 38.87549 1.37058 27 ft 18 kts 242°
2026-05-06 17:47 38.87519 1.36972 27 ft 6 kts 276°
2026-05-06 17:47 38.87546 1.36948 27 ft 5 kts 336°
2026-05-06 17:48 38.87572 1.36931 27 ft 2 kts 333°
2026-05-06 17:48 38.87574 1.36930 27 ft 0 kts 333°